Regional Weather Roundup
Issued by NWS Sioux Falls, SD

Home | Current Version | Previous Version | Text Only | Print | Product List | Glossary On
Versions: 1 2 3 4 5 6 7 8 9 10 11 12 13 14 15 16 17 18 19 20 21 22 23 24 25 26 27 28 29 30 31 32 33 34 35 36 37 38 39 40 41 42 43 44 45 46 47 48 49 50
000
ASUS43 KFSD 281410
RWRFSD

WEATHER ROUNDUP FOR SE SOUTH DAKOTA/SW MINNESOTA/NW IOWA
NATIONAL WEATHER SERVICE SIOUX FALLS SD
900 AM CDT THU JUL 28 2016

NOTE: "FAIR" INDICATES FEW OR NO CLOUDS BELOW 12,000 FEET WITH NO
SIGNIFICANT WEATHER AND OR OBSTRUCTIONS TO VISIBILITY.


SDZ038>040-050-052>070-281500-
SOUTHEAST SOUTH DAKOTA

CITY           SKY/WX    TMP DP  RH WIND       PRES   REMARKS
BROOKINGS      CLOUDY    65  62  90 NE8       30.09R
CHAMBERLAIN    MOSUNNY   69  61  75 CALM      30.12F
HURON          SUNNY     67  60  78 NW7       30.09S
MADISON        FAIR      64  64 100 N10       30.10S
MITCHELL       MOSUNNY   69  62  78 NW5       30.11R
SIOUX FALLS    PTSUNNY   68  61  78 N6        30.08R
WINNER         CLOUDY    64  61  90 CALM      30.13S
YANKTON        CLOUDY    68  59  73 NW7       30.09S
$$

MNZ071-072-080-081-089-090-097-098-281500-
SOUTHWEST MINNESOTA

CITY           SKY/WX    TMP DP  RH WIND       PRES   REMARKS
FAIRMONT       CLOUDY    64  61  88 N8        30.03R
JACKSON        CLOUDY    64  61  88 N7        30.05S
LUVERNE        PTSUNNY   63  57  82 N5        30.08R
MARSHALL       CLOUDY    63  61  93 N8        30.07S
MONTEVIDEO     CLOUDY    64  63  94 E9        30.06F
REDWOOD FALLS  CLOUDY    64  60  87 NE7       30.04F
TRACY          CLOUDY    64  63  97 N6        30.07S
WINDOM         CLOUDY    64  63  94 N6        30.05F
WORTHINGTON    CLOUDY    63  61  93 N8        30.08R
$$

IAZ001>003-012>014-020>022-031-032-NEZ013-014-SDZ071-281500-
NORTHWEST IOWA

CITY           SKY/WX    TMP DP  RH WIND       PRES   REMARKS
CHEROKEE       PTSUNNY   68  64  89 NW5       30.08R
DENISON        MOSUNNY   72  68  88 CALM      30.04R
ESTHERVILLE    CLOUDY    64  62  93 N9        30.04R
LE MARS        SUNNY     70  61  73 N7        30.08R
SHELDON        PTSUNNY   64  61  88 CALM      30.06R
SIOUX CITY     SUNNY     72  63  73 NW6       30.07R
SPENCER        CLOUDY    65  62  90 N9        30.04S
STORM LAKE     SUNNY     68  64  88 NW6       30.05S
$$

ABBREVIATIONS USED IN REMARKS
   TC - TEMPERATURE IN CELSIUS
  WCI - WIND CHILL INDEX
   HX - HEAT INDEX
  VSB - VISIBILITY





USA.gov is the U.S. government's official web portal to all federal, state and local government web resources and services.